TimeEST,TemperatureF,Dew PointF,Humidity,Sea Level PressureIn,VisibilityMPH,Wind Direction,Wind SpeedMPH,Gust SpeedMPH,PrecipitationIn,Events,Conditions,WindDirDegrees,DateUTC
12:54 AM,26.1,19.0,75,30.20,10.0,WSW,15.0,-,N/A,,Clear,250,2013-12-28 05:54:00
1:54 AM,25.0,19.0,78,30.19,10.0,WSW,17.3,-,N/A,,Clear,250,2013-12-28 06:54:00
2:54 AM,25.0,19.0,78,30.19,10.0,WSW,12.7,-,N/A,,Clear,240,2013-12-28 07:54:00
3:54 AM,25.0,19.0,78,30.17,10.0,WSW,12.7,-,N/A,,Clear,240,2013-12-28 08:54:00
4:54 AM,26.1,19.9,78,30.17,10.0,WSW,13.8,-,N/A,,Clear,240,2013-12-28 09:54:00
5:54 AM,28.0,21.0,75,30.14,10.0,WSW,16.1,-,N/A,,Clear,240,2013-12-28 10:54:00
6:54 AM,28.0,21.9,78,30.13,10.0,SW,11.5,-,N/A,,Clear,230,2013-12-28 11:54:00
7:54 AM,28.9,21.0,72,30.12,10.0,SW,16.1,-,N/A,,Clear,220,2013-12-28 12:54:00
8:54 AM,32.0,21.9,66,30.12,10.0,SW,16.1,-,N/A,,Partly Cloudy,220,2013-12-28 13:54:00
9:54 AM,35.1,21.9,59,30.10,10.0,SW,20.7,27.6,N/A,,Mostly Cloudy,220,2013-12-28 14:54:00
10:54 AM,37.0,23.0,57,30.08,10.0,WSW,17.3,31.1,N/A,,Overcast,240,2013-12-28 15:54:00
11:54 AM,39.0,23.0,53,30.06,10.0,WSW,17.3,28.8,N/A,,Partly Cloudy,250,2013-12-28 16:54:00
12:54 PM,39.9,23.0,51,30.04,10.0,WSW,20.7,31.1,N/A,,Clear,250,2013-12-28 17:54:00
1:54 PM,41.0,23.0,49,30.02,10.0,WSW,17.3,23.0,N/A,,Clear,250,2013-12-28 18:54:00
2:54 PM,42.1,23.0,47,30.02,10.0,WSW,12.7,-,N/A,,Clear,250,2013-12-28 19:54:00
3:54 PM,39.9,24.1,53,30.03,10.0,WSW,10.4,-,N/A,,Clear,250,2013-12-28 20:54:00
4:54 PM,37.0,24.1,59,30.05,10.0,WSW,12.7,-,N/A,,Clear,240,2013-12-28 21:54:00
5:54 PM,36.0,23.0,59,30.07,10.0,SW,4.6,-,N/A,,Clear,220,2013-12-28 22:54:00
6:54 PM,34.0,23.0,64,30.08,10.0,SW,8.1,-,N/A,,Clear,230,2013-12-28 23:54:00
7:54 PM,34.0,24.1,67,30.09,10.0,WSW,11.5,-,N/A,,Clear,240,2013-12-29 00:54:00
8:54 PM,36.0,24.1,62,30.07,10.0,West,11.5,-,N/A,,Clear,260,2013-12-29 01:54:00
9:54 PM,36.0,24.1,62,30.05,10.0,West,10.4,-,N/A,,Clear,260,2013-12-29 02:54:00
10:54 PM,37.0,24.1,59,30.04,10.0,WSW,13.8,-,N/A,,Clear,250,2013-12-29 03:54:00
11:54 PM,37.0,24.1,59,30.02,10.0,West,15.0,-,N/A,,Clear,260,2013-12-29 04:54:00